Find Kosmos-1181

NORAD ID: 11803 Int'l Des: 1980-039 Owner: VMF Country: SU operational
LEOCIRCULARPOLAR

Live-Position

3D-Globus wird geladen...

Über Kosmos-1181

Beschreibung wird geladen...

Nächste Überflüge

Passes for default location (London). Set your location on the main map for personalized predictions.

Höhenverlauf

Loading altitude history...

Zweizeiliger Elementsatz

1 11803U 80039A 26106.20264822 .00000031 00000-0 16597-4 0 9990
2 11803 82.9395 261.6299 0023334 54.9182 117.6437 13.74200451301448
Epoch: 16. Apr. 2026 • Age: 13 hours

Aktueller Status

Höhe 977.6 km
Geschwindigkeit 7.37 km/s
Subsatellitenpunkt -1.16°S, 146.17°E
Startdatum 20. Mai 1980
Alter 45.9 years
Typ other

Technische Details

Klassifizierung Payload
Masse 800.00 kg
Trockenmasse 800.00 kg
Gesamtmasse 800.00 kg
Länge 5.00 m
Durchmesser 2.10 m
Spannweite 17.00 m
Form Cyl + Ant
Hersteller OAZ
Bus-Typ KAUR-1 11F627
Phasenstatus In Orbit
Besitzer/Staat VMF/SU

Most Searched